CZ-2C R/B (31114 NORAD) Tracking and Keplerian Element Data

This shows tracking and keplerian element data for the satellite.

Feedback or suggestion? Click here.




ElementValue
Catalog31114
NameCZ-2C R/B
Epoch Orbit60491
Epoch Day348.79072724
Epoch Year2018
RAAN226.3191
Inclination98.3357
Eccentricity0.0060844
Argument of Perigee70.7908
Mean Anonmoly289.984
Mean Motion14.19283217
Decay Rate2.3E-07
L11 31114U 07010B 18348.79072724 .00000023 00000-0 29404-4 0 9998
L22 31114 98.3357 226.3191 0060844 70.7908 289.9840 14.19283217604912

Live tracking and technical data element details for CZ-2C R/B (NORAD 31114). CZ-2C R/B can be tracked NOW for your location showing map with azimuth and elevation plus other details from your city location.

Track the satellite on the map from your city or location and see movement details for azimuth, elevation, latitude, longitude, range, height, and movement on the map or in text.







IsCatalogInMostPopularTable: catalog: 31114, numindb: 41
Update: records affected: 1



GetName: 31114 CZ-2C R/B

Hit Count: updated at: Sat, 15 Dec 2018 13:59:59 GMT